Terminal Aerodrome Forecast
Issued by NWS Green Bay, WI

Home | Current Version | Previous Version | Graphics & Text | Print | Product List | Glossary On
Versions: 1 2 3 4 5 6 7 8 9 10 11 12 13 14 15 16 17 18 19 20 21 22 23 24 25 26 27 28 29 30 31 32 33 34 35 36 37 38
307
FTUS43 KGRB 142341
TAFGRB
TAF
KGRB 142341Z 1500/1524 06012G18KT 3SM SHRA BR OVC005
      TEMPO 1500/1504 1 1/2SM +TSRA BR BKN003 OVC015CB
     FM150400 02009G15KT 2SM -SHRA BR OVC003
     FM151000 33014G22KT 4SM SHRA OVC006
     FM151300 33021G31KT P6SM -SHRA OVC015
     FM151500 33024G34KT P6SM OVC025
     FM151700 32018G26KT P6SM BKN040
     FM152200 30010KT P6SM SCT040=

USA.gov is the U.S. government's official web portal to all federal, state and local government web resources and services.